Regional Weather Roundup
Issued by NWS

Home | Current Version | Previous Version | Graphics & Text | Print | Product List | Glossary On
Versions: 1 2 3 4 5 6 7 8 9 10 11 12 13 14 15 16 17 18 19 20 21 22 23 24 25 26 27 28 29 30 31 32 33 34 35 36 37 38 39 40 41 42 43 44 45 46 47 48 49 50
256
ASUS45 KBOI 070310
RWRID

IDAHO REGIONAL WEATHER ROUNDUP
NATIONAL WEATHER SERVICE BOISE ID
800 PM MST SAT FEB 06 2016

NOTE: "FAIR" INDICATES FEW OR NO CLOUDS BELOW 12000 FEET
WITH NO SIGNIFICANT WEATHER AND/OR OBSTRUCTIONS TO VISIBILITY

IDZ012-014-070400-
SOUTHWEST IDAHO


CITY           SKY/WX    TMP DP  RH WIND       PRES   REMARKS
BOISE          MOCLDY    37  32  82 W6        30.44R WCI  32
CALDWELL       MOCLDY    35  31  85 W7        30.46S WCI  29
MOUNTAIN HOME  MOCLDY    34  34 100 W5        30.43R WCI  30
$$

IDZ016-017-070400-
SOUTHCENTRAL IDAHO


CITY           SKY/WX    TMP DP  RH WIND       PRES   REMARKS
BURLEY         MOCLDY    35  27  72 SW8       30.38F WCI  29
JEROME         PTCLDY    36  26  67 S6        30.40F WCI  31
TWIN FALLS     CLOUDY    37  28  70 S10       30.40S WCI  30
$$

IDZ019>023-070400-
SOUTHEAST IDAHO


CITY           SKY/WX    TMP DP  RH WIND       PRES   REMARKS
IDAHO FALLS    CLOUDY    21  18  88 N10G20    30.39S WCI  10
POCATELLO      CLOUDY    37  24  59 S17       30.39S WCI  27
REXBURG        CLOUDY    20  17  88 NE3       30.39R
$$

IDZ006-010-011-018-031-032-070400-
CENTRAL IDAHO MOUNTAINS


CITY           SKY/WX    TMP DP  RH WIND       PRES   REMARKS
MCCALL         MOCLDY    27  25  92 CALM      30.38S
HAILEY         PTCLDY    25  21  86 NW8       30.36S WCI  16
STANLEY          N/A     31  19  61 N3        30.37R
SALMON         CLOUDY    25  21  86 SE3       30.34S
CHALLIS        CLOUDY    28  20  71 S6        30.33R WCI  22
$$

IDZ002-004-006-007-026-070400-
NORTHERN IDAHO


CITY           SKY/WX    TMP DP  RH WIND       PRES   REMARKS
LEWISTON       CLOUDY    42  30  62 E5        30.43R
LOWELL           N/A     37  34  89 CALM      30.46R
COEUR D`ALENE  PTCLDY    36  28  75 SW6       30.38R WCI  31
MULLAN PASS    CLOUDY    22  19  89 W10G20    30.26S WCI  11
$$




USA.gov is the U.S. government's official web portal to all federal, state and local government web resources and services.